Tracking 29511 objects as of 17-Sep-2024
HD Live streaming from Space Station
objects crossing your sky now

STARLINK-3550

Track STARLINK-3550 now!
10-day predictions
STARLINK-3550 is classified as:


NORAD ID: 52373
Int'l Code: 2022-045AU
Perigee: 545.9 km
Apogee: 547.9 km
Inclination: 53.2 °
Period: 95.4 minutes
Semi major axis: 6917 km
RCS: Unknown
Launch date: April 29, 2022
Source: United States (US)
Launch site: AIR FORCE EASTERN TEST RANGE (AFETR)
Your satellite tracking list
Your tracking list is empty




NASA's NSSDC Master Catalog

Two Line Element Set (TLE):
1 52373U 22045AU  24260.95198754  .00001495  00000-0  11200-3 0  9991
2 52373  53.2174  87.6075 0001410 100.2835 259.8316 15.08842070134593
Source of the keplerian elements: AFSPC